Time,TemperatureF,DewpointF,PressureIn,WindDirection,WindDirectionDegrees,WindSpeedMPH,WindSpeedGustMPH,Humidity,HourlyPrecipIn,Conditions,Clouds,dailyrainin,SoftwareType,DateUTC
2013-01-17 00:02:00,29.0,29.0,-100.00,NW,325,13.0,19.0,99,0.00,,,-99.99,,2013-01-17 06:02:00,
2013-01-17 00:12:00,29.0,29.0,-100.00,NW,325,13.0,19.0,99,0.00,,,-99.99,,2013-01-17 06:12:00,
2013-01-17 00:22:00,29.0,29.0,-100.00,NW,325,13.0,19.0,99,0.00,,,-99.99,,2013-01-17 06:22:00,
2013-01-17 00:33:00,28.0,28.0,-100.00,NNW,330,12.0,18.0,99,0.00,,,-99.99,,2013-01-17 06:33:00,
2013-01-17 00:42:00,27.0,27.0,-100.00,NW,325,11.0,14.0,99,0.00,,,-99.99,,2013-01-17 06:42:00,
2013-01-17 00:52:00,27.0,27.0,-100.00,NW,325,12.0,16.0,99,0.00,,,-99.99,,2013-01-17 06:52:00,
2013-01-17 01:02:00,26.0,26.0,-100.00,NNW,330,15.0,17.0,99,0.00,,,-99.99,,2013-01-17 07:02:00,
2013-01-17 01:12:00,26.0,26.0,-100.00,NNW,335,13.0,19.0,99,0.00,,,-99.99,,2013-01-17 07:12:00,
2013-01-17 01:22:00,26.0,26.0,-100.00,NNW,335,13.0,19.0,99,0.00,,,-99.99,,2013-01-17 07:22:00,
2013-01-17 01:32:00,25.0,25.0,-100.00,NW,320,10.0,13.0,99,0.00,,,-99.99,,2013-01-17 07:32:00,
2013-01-17 01:42:00,24.0,24.0,-100.00,NW,315,7.0,13.0,99,0.00,,,-99.99,,2013-01-17 07:42:00,
2013-01-17 01:52:00,24.0,24.0,-100.00,NW,315,9.0,11.0,99,0.00,,,-99.99,,2013-01-17 07:52:00,
2013-01-17 02:02:00,24.0,24.0,-100.00,NW,320,9.0,13.0,99,0.00,,,-99.99,,2013-01-17 08:02:00,
2013-01-17 02:12:00,23.0,23.0,-100.00,NNW,330,9.0,12.0,99,0.00,,,-99.99,,2013-01-17 08:12:00,
2013-01-17 02:22:00,23.0,23.0,-100.00,NNW,330,9.0,12.0,99,0.00,,,-99.99,,2013-01-17 08:22:00,
2013-01-17 02:32:00,23.0,23.0,-100.00,NW,315,9.0,13.0,99,0.00,,,-99.99,,2013-01-17 08:32:00,
2013-01-17 02:43:00,23.0,23.0,-100.00,NW,315,7.0,11.0,99,0.00,,,-99.99,,2013-01-17 08:43:00,
2013-01-17 02:52:00,22.0,22.0,-100.00,NNW,330,11.0,13.0,99,0.00,,,-99.99,,2013-01-17 08:52:00,
2013-01-17 03:02:00,22.0,22.0,-100.00,NW,325,12.0,16.0,99,0.00,,,-99.99,,2013-01-17 09:02:00,
2013-01-17 03:12:00,22.0,22.0,-100.00,NNW,330,10.0,15.0,99,0.00,,,-99.99,,2013-01-17 09:12:00,
2013-01-17 03:22:00,21.0,21.0,-100.00,NW,325,11.0,15.0,99,0.00,,,-99.99,,2013-01-17 09:22:00,
2013-01-17 03:32:00,21.0,21.0,-100.00,NW,325,11.0,16.0,99,0.00,,,-99.99,,2013-01-17 09:32:00,
2013-01-17 03:42:00,20.0,20.0,-100.00,NNW,330,7.0,12.0,99,0.00,,,-99.99,,2013-01-17 09:42:00,
2013-01-17 03:52:00,20.0,20.0,-100.00,NW,320,7.0,10.0,99,0.00,,,-99.99,,2013-01-17 09:52:00,
2013-01-17 04:02:00,20.0,20.0,-100.00,NW,320,7.0,10.0,99,0.00,,,-99.99,,2013-01-17 10:02:00,
2013-01-17 04:12:00,20.0,20.0,-100.00,NW,325,12.0,16.0,99,0.00,,,-99.99,,2013-01-17 10:12:00,
2013-01-17 04:22:00,20.0,20.0,-100.00,NW,325,12.0,16.0,99,0.00,,,-99.99,,2013-01-17 10:22:00,
2013-01-17 04:32:00,19.0,19.0,-100.00,NW,320,11.0,14.0,99,0.00,,,-99.99,,2013-01-17 10:32:00,
2013-01-17 04:42:00,19.0,19.0,-100.00,NNW,335,12.0,14.0,99,0.00,,,-99.99,,2013-01-17 10:42:00,
2013-01-17 04:52:00,18.0,18.0,-100.00,NNW,330,12.0,16.0,99,0.00,,,-99.99,,2013-01-17 10:52:00,
2013-01-17 05:02:00,18.0,18.0,-100.00,NNW,335,12.0,16.0,99,0.00,,,-99.99,,2013-01-17 11:02:00,
2013-01-17 05:12:00,18.0,18.0,-100.00,NNW,330,12.0,15.0,99,0.00,,,-99.99,,2013-01-17 11:12:00,
2013-01-17 05:22:00,18.0,18.0,-100.00,NNW,335,10.0,14.0,99,0.00,,,-99.99,,2013-01-17 11:22:00,
2013-01-17 05:33:00,17.0,17.0,-100.00,NW,320,9.0,11.0,99,0.00,,,-99.99,,2013-01-17 11:33:00,
2013-01-17 05:42:00,17.0,17.0,-100.00,NW,325,6.0,10.0,99,0.00,,,-99.99,,2013-01-17 11:42:00,
2013-01-17 05:52:00,17.0,17.0,-100.00,NNW,335,7.0,11.0,99,0.00,,,-99.99,,2013-01-17 11:52:00,
2013-01-17 06:02:00,17.0,17.0,-100.00,NW,325,7.0,9.0,99,0.00,,,-99.99,,2013-01-17 12:02:00,
2013-01-17 06:12:00,16.0,16.0,-100.00,NW,315,6.0,9.0,99,0.00,,,-99.99,,2013-01-17 12:12:00,
2013-01-17 06:22:00,16.0,16.0,-100.00,NW,320,7.0,10.0,99,0.00,,,-99.99,,2013-01-17 12:22:00,
2013-01-17 06:32:00,16.0,16.0,-100.00,NW,320,7.0,11.0,99,0.00,,,-99.99,,2013-01-17 12:32:00,
2013-01-17 06:42:00,16.0,16.0,-100.00,NW,320,7.0,11.0,99,0.00,,,-99.99,,2013-01-17 12:42:00,
2013-01-17 06:52:00,16.0,16.0,-100.00,NW,325,10.0,12.0,99,0.00,,,-99.99,,2013-01-17 12:52:00,
2013-01-17 07:03:00,16.0,16.0,-100.00,NW,325,10.0,12.0,99,0.00,,,-99.99,,2013-01-17 13:03:00,
2013-01-17 07:12:00,15.0,15.0,-100.00,NW,320,9.0,12.0,99,0.00,,,-99.99,,2013-01-17 13:12:00,
2013-01-17 07:22:00,15.0,15.0,-100.00,NW,315,10.0,12.0,99,0.00,,,-99.99,,2013-01-17 13:22:00,
2013-01-17 07:33:00,15.0,15.0,-100.00,NW,320,6.0,10.0,99,0.00,,,-99.99,,2013-01-17 13:33:00,
2013-01-17 07:43:00,15.0,15.0,-100.00,NW,325,7.0,9.0,99,0.00,,,-99.99,,2013-01-17 13:43:00,
2013-01-17 07:52:00,15.0,14.0,-100.00,NW,320,6.0,12.0,99,0.00,,,-99.99,,2013-01-17 13:52:00,
2013-01-17 08:03:00,14.0,14.0,-100.00,NNW,335,4.0,9.0,99,0.00,,,-99.99,,2013-01-17 14:03:00,
2013-01-17 08:12:00,15.0,15.0,-100.00,NW,320,4.0,7.0,99,0.00,,,-99.99,,2013-01-17 14:12:00,
2013-01-17 08:23:00,15.0,15.0,-100.00,NNW,330,6.0,7.0,99,0.00,,,-99.99,,2013-01-17 14:23:00,
2013-01-17 08:33:00,15.0,15.0,-100.00,NW,315,4.0,7.0,99,0.00,,,-99.99,,2013-01-17 14:33:00,
2013-01-17 08:42:00,16.0,15.0,-100.00,NW,325,6.0,7.0,97,0.00,,,-99.99,,2013-01-17 14:42:00,
2013-01-17 08:53:00,16.0,14.0,-100.00,NW,320,7.0,9.0,93,0.00,,,-99.99,,2013-01-17 14:53:00,
2013-01-17 09:03:00,16.0,14.0,-100.00,NW,315,6.0,9.0,92,0.00,,,-99.99,,2013-01-17 15:03:00,
2013-01-17 09:12:00,16.0,14.0,-100.00,NNW,330,6.0,9.0,89,0.00,,,-99.99,,2013-01-17 15:12:00,
2013-01-17 09:22:00,17.0,14.0,-100.00,NW,325,8.0,9.0,87,0.00,,,-99.99,,2013-01-17 15:22:00,
2013-01-17 09:33:00,17.0,13.0,-100.00,NW,325,9.0,12.0,84,0.00,,,-99.99,,2013-01-17 15:33:00,
2013-01-17 09:43:00,18.0,14.0,-100.00,NW,315,7.0,11.0,83,0.00,,,-99.99,,2013-01-17 15:43:00,
2013-01-17 09:53:00,18.0,13.0,-100.00,NNW,335,8.0,11.0,78,0.00,,,-99.99,,2013-01-17 15:53:00,
2013-01-17 10:02:00,18.0,13.0,-100.00,NNW,330,7.0,10.0,77,0.00,,,-99.99,,2013-01-17 16:02:00,
2013-01-17 10:12:00,19.0,13.0,-100.00,NW,305,6.0,10.0,76,0.00,,,-99.99,,2013-01-17 16:12:00,
2013-01-17 10:22:00,19.0,13.0,-100.00,NW,320,9.0,11.0,74,0.00,,,-99.99,,2013-01-17 16:22:00,
2013-01-17 10:33:00,20.0,13.0,-100.00,NW,315,8.0,14.0,75,0.00,,,-99.99,,2013-01-17 16:33:00,
2013-01-17 10:43:00,20.0,13.0,-100.00,NW,325,9.0,11.0,73,0.00,,,-99.99,,2013-01-17 16:43:00,
2013-01-17 10:52:00,20.0,12.0,-100.00,NW,310,8.0,12.0,71,0.00,,,-99.99,,2013-01-17 16:52:00,
2013-01-17 11:03:00,21.0,12.0,-100.00,NW,325,7.0,9.0,69,0.00,,,-99.99,,2013-01-17 17:03:00,
2013-01-17 11:12:00,21.0,13.0,-100.00,NNW,340,6.0,9.0,69,0.00,,,-99.99,,2013-01-17 17:12:00,
2013-01-17 11:22:00,21.0,12.0,-100.00,NW,305,7.0,10.0,68,0.00,,,-99.99,,2013-01-17 17:22:00,
2013-01-17 11:33:00,22.0,14.0,-100.00,WNW,290,4.0,8.0,71,0.00,,,-99.99,,2013-01-17 17:33:00,
2013-01-17 11:43:00,22.0,12.0,-100.00,NW,320,6.0,9.0,65,0.00,,,-99.99,,2013-01-17 17:43:00,
2013-01-17 11:53:00,23.0,14.0,-100.00,West,280,7.0,11.0,67,0.00,,,-99.99,,2013-01-17 17:53:00,
2013-01-17 12:03:00,23.0,13.0,-100.00,NW,305,6.0,11.0,64,0.00,,,-99.99,,2013-01-17 18:03:00,
2013-01-17 12:12:00,23.0,12.0,-100.00,WNW,300,9.0,12.0,63,0.00,,,-99.99,,2013-01-17 18:12:00,
2013-01-17 12:22:00,23.0,12.0,-100.00,WNW,290,6.0,10.0,63,0.00,,,-99.99,,2013-01-17 18:22:00,
2013-01-17 12:33:00,23.0,12.0,-100.00,WNW,295,8.0,12.0,60,0.00,,,-99.99,,2013-01-17 18:33:00,
2013-01-17 12:43:00,24.0,14.0,-100.00,NW,305,9.0,11.0,64,0.00,,,-99.99,,2013-01-17 18:43:00,
2013-01-17 12:53:00,24.0,12.0,-100.00,WNW,285,3.0,8.0,58,0.00,,,-99.99,,2013-01-17 18:53:00,
2013-01-17 13:03:00,25.0,12.0,-100.00,South,180,3.0,6.0,56,0.00,,,-99.99,,2013-01-17 19:03:00,
2013-01-17 13:12:00,26.0,12.0,-100.00,WSW,255,5.0,7.0,54,0.00,,,-99.99,,2013-01-17 19:12:00,
2013-01-17 13:22:00,26.0,12.0,-100.00,SW,230,7.0,10.0,55,0.00,,,-99.99,,2013-01-17 19:22:00,
2013-01-17 13:33:00,26.0,12.0,-100.00,West,275,7.0,12.0,56,0.00,,,-99.99,,2013-01-17 19:33:00,
2013-01-17 13:43:00,27.0,13.0,-100.00,West,265,11.0,13.0,56,0.00,,,-99.99,,2013-01-17 19:43:00,
2013-01-17 13:53:00,27.0,14.0,-100.00,WSW,245,9.0,19.0,57,0.00,,,-99.99,,2013-01-17 19:53:00,
2013-01-17 14:03:00,28.0,14.0,-100.00,WSW,240,9.0,14.0,55,0.00,,,-99.99,,2013-01-17 20:03:00,
2013-01-17 14:12:00,27.0,14.0,-100.00,West,265,10.0,12.0,57,0.00,,,-99.99,,2013-01-17 20:12:00,
2013-01-17 14:23:00,27.0,14.0,-100.00,West,260,6.0,14.0,56,0.00,,,-99.99,,2013-01-17 20:23:00,
2013-01-17 14:33:00,28.0,15.0,-100.00,West,265,7.0,9.0,57,0.00,,,-99.99,,2013-01-17 20:33:00,
2013-01-17 14:43:00,28.0,15.0,-100.00,West,270,9.0,11.0,58,0.00,,,-99.99,,2013-01-17 20:43:00,
2013-01-17 14:53:00,29.0,16.0,-100.00,WNW,295,9.0,12.0,57,0.00,,,-99.99,,2013-01-17 20:53:00,
2013-01-17 15:03:00,29.0,16.0,-100.00,West,280,8.0,12.0,57,0.00,,,-99.99,,2013-01-17 21:03:00,
2013-01-17 15:13:00,30.0,17.0,-100.00,West,265,4.0,9.0,57,0.00,,,-99.99,,2013-01-17 21:13:00,
2013-01-17 15:23:00,30.0,17.0,-100.00,West,275,5.0,7.0,57,0.00,,,-99.99,,2013-01-17 21:23:00,
2013-01-17 15:33:00,30.0,18.0,-100.00,WNW,295,6.0,9.0,60,0.00,,,-99.99,,2013-01-17 21:33:00,
2013-01-17 15:43:00,31.0,19.0,-100.00,NW,320,6.0,9.0,61,0.00,,,-99.99,,2013-01-17 21:43:00,
2013-01-17 15:52:00,31.0,20.0,-100.00,WNW,295,9.0,11.0,63,0.00,,,-99.99,,2013-01-17 21:52:00,
2013-01-17 16:03:00,31.0,20.0,-100.00,NW,310,8.0,11.0,62,0.00,,,-99.99,,2013-01-17 22:03:00,
2013-01-17 16:12:00,31.0,20.0,-100.00,NW,305,6.0,7.0,63,0.00,,,-99.99,,2013-01-17 22:12:00,
2013-01-17 16:22:00,31.0,21.0,-100.00,NW,305,10.0,12.0,65,0.00,,,-99.99,,2013-01-17 22:22:00,
2013-01-17 16:33:00,31.0,20.0,-100.00,WNW,285,11.0,12.0,64,0.00,,,-99.99,,2013-01-17 22:33:00,
2013-01-17 16:43:00,30.0,20.0,-100.00,WNW,290,7.0,12.0,64,0.00,,,-99.99,,2013-01-17 22:43:00,
2013-01-17 16:52:00,30.0,21.0,-100.00,WNW,285,6.0,11.0,68,0.00,,,-99.99,,2013-01-17 22:52:00,
2013-01-17 17:03:00,29.0,20.0,-100.00,West,270,6.0,7.0,68,0.00,,,-99.99,,2013-01-17 23:03:00,
2013-01-17 17:12:00,29.0,20.0,-100.00,WNW,285,4.0,7.0,70,0.00,,,-99.99,,2013-01-17 23:12:00,
2013-01-17 17:22:00,28.0,19.0,-100.00,WSW,255,5.0,6.0,70,0.00,,,-99.99,,2013-01-17 23:22:00,
2013-01-17 17:33:00,28.0,19.0,-100.00,WSW,255,5.0,6.0,70,0.00,,,-99.99,,2013-01-17 23:33:00,
2013-01-17 17:43:00,27.0,20.0,-100.00,West,265,4.0,4.0,71,0.00,,,-99.99,,2013-01-17 23:43:00,
2013-01-17 17:52:00,27.0,19.0,-100.00,West,265,3.0,4.0,71,0.00,,,-99.99,,2013-01-17 23:52:00,
2013-01-17 18:02:00,26.0,20.0,-100.00,West,270,3.0,3.0,75,0.00,,,-99.99,,2013-01-18 00:02:00,
2013-01-17 18:12:00,25.0,20.0,-100.00,West,270,1.0,2.0,80,0.00,,,-99.99,,2013-01-18 00:12:00,
2013-01-17 18:23:00,23.0,20.0,-100.00,SSW,210,0.0,2.0,87,0.00,,,-99.99,,2013-01-18 00:23:00,
2013-01-17 18:32:00,23.0,20.0,-100.00,SSW,210,0.0,2.0,87,0.00,,,-99.99,,2013-01-18 00:32:00,
2013-01-17 18:42:00,23.0,19.0,-100.00,SSW,200,0.0,0.0,84,0.00,,,-99.99,,2013-01-18 00:42:00,
2013-01-17 18:52:00,24.0,20.0,-100.00,East,95,1.0,2.0,84,0.00,,,-99.99,,2013-01-18 00:52:00,
2013-01-17 19:03:00,23.0,20.0,-100.00,ESE,110,0.0,1.0,87,0.00,,,-99.99,,2013-01-18 01:03:00,
2013-01-17 19:12:00,24.0,20.0,-100.00,SE,130,0.0,1.0,84,0.00,,,-99.99,,2013-01-18 01:12:00,
2013-01-17 19:22:00,24.0,20.0,-100.00,SE,130,0.0,1.0,84,0.00,,,-99.99,,2013-01-18 01:22:00,
2013-01-17 19:33:00,22.0,19.0,-100.00,SE,135,0.0,2.0,87,0.00,,,-99.99,,2013-01-18 01:33:00,
2013-01-17 19:42:00,19.0,18.0,-100.00,South,185,2.0,3.0,96,0.00,,,-99.99,,2013-01-18 01:42:00,
2013-01-17 19:52:00,20.0,20.0,-100.00,SSW,195,1.0,2.0,99,0.00,,,-99.99,,2013-01-18 01:52:00,
2013-01-17 20:02:00,20.0,20.0,-100.00,SE,145,1.0,1.0,99,0.00,,,-99.99,,2013-01-18 02:02:00,
2013-01-17 20:12:00,21.0,21.0,-100.00,East,80,2.0,2.0,99,0.00,,,-99.99,,2013-01-18 02:12:00,
2013-01-17 20:22:00,20.0,20.0,-100.00,SE,130,1.0,2.0,99,0.00,,,-99.99,,2013-01-18 02:22:00,
2013-01-17 20:32:00,20.0,20.0,-100.00,SE,130,1.0,2.0,99,0.00,,,-99.99,,2013-01-18 02:32:00,
2013-01-17 20:42:00,19.0,19.0,-100.00,WSW,245,1.0,1.0,99,0.00,,,-99.99,,2013-01-18 02:42:00,
2013-01-17 20:52:00,17.0,17.0,-100.00,South,170,1.0,4.0,99,0.00,,,-99.99,,2013-01-18 02:52:00,
2013-01-17 21:02:00,18.0,18.0,-100.00,South,170,0.0,1.0,99,0.00,,,-99.99,,2013-01-18 03:02:00,
2013-01-17 21:12:00,18.0,18.0,-100.00,South,170,0.0,1.0,99,0.00,,,-99.99,,2013-01-18 03:12:00,
2013-01-17 21:22:00,19.0,19.0,-100.00,South,175,0.0,1.0,99,0.00,,,-99.99,,2013-01-18 03:22:00,
2013-01-17 21:33:00,16.0,16.0,-100.00,SW,225,0.0,1.0,99,0.00,,,-99.99,,2013-01-18 03:33:00,
2013-01-17 21:42:00,16.0,16.0,-100.00,SW,220,0.0,0.0,99,0.00,,,-99.99,,2013-01-18 03:42:00,
2013-01-17 21:53:00,17.0,17.0,-100.00,South,185,0.0,0.0,99,0.00,,,-99.99,,2013-01-18 03:53:00,
2013-01-17 22:02:00,17.0,17.0,-100.00,South,185,0.0,0.0,99,0.00,,,-99.99,,2013-01-18 04:02:00,
2013-01-17 22:12:00,19.0,19.0,-100.00,ESE,120,2.0,3.0,99,0.00,,,-99.99,,2013-01-18 04:12:00,
2013-01-17 22:22:00,20.0,20.0,-100.00,ESE,110,2.0,3.0,99,0.00,,,-99.99,,2013-01-18 04:22:00,
2013-01-17 22:32:00,18.0,18.0,-100.00,SW,220,0.0,2.0,99,0.00,,,-99.99,,2013-01-18 04:32:00,
2013-01-17 22:42:00,19.0,19.0,-100.00,South,175,0.0,0.0,99,0.00,,,-99.99,,2013-01-18 04:42:00,
2013-01-17 22:52:00,19.0,19.0,-100.00,South,185,1.0,2.0,99,0.00,,,-99.99,,2013-01-18 04:52:00,
2013-01-17 23:03:00,19.0,19.0,-100.00,SW,235,1.0,2.0,99,0.00,,,-99.99,,2013-01-18 05:03:00,
2013-01-17 23:12:00,19.0,19.0,-100.00,South,185,0.0,1.0,99,0.00,,,-99.99,,2013-01-18 05:12:00,
2013-01-17 23:22:00,20.0,20.0,-100.00,SSE,165,1.0,1.0,99,0.00,,,-99.99,,2013-01-18 05:22:00,
2013-01-17 23:33:00,21.0,21.0,-100.00,SSE,165,1.0,1.0,99,0.00,,,-99.99,,2013-01-18 05:33:00,
2013-01-17 23:42:00,21.0,21.0,-100.00,South,175,1.0,2.0,99,0.00,,,-99.99,,2013-01-18 05:42:00,
2013-01-17 23:52:00,21.0,21.0,-100.00,South,175,1.0,2.0,99,0.00,,,-99.99,,2013-01-18 05:52:00,